Location: Bosdarros
(43.2167°N, 0.3667°W)
Time: 07:39:10
(UTC+00:00)

IRIDIUM 103 - Pass Details

Date: 22 April 2021
Orbit: 776 x 779 km, 86.4° (Epoch: 07 May)

Event Time Altitude Azimuth Distance (km) Brightness Sun altitude
Exits shadow 20:21:42 - 180° (S) 2,773 6.9 -15.3°
Reaches altitude 10° 20:22:51 10° 180° (S) 2,322 6.5 -15.5°
Maximum altitude 20:28:04 88° 93° (E) 784 4.3 -16.3°
Drops below altitude 10° 20:33:18 10° 3° (N) 2,337 7.2 -17.1°
Sets 20:35:40 0° 4° (N) 3,269 8.0 -17.4°
